Weather History for Minneapolis Flying Cloud, MN

Change the Weather History Date:

Friday, April 26, 2013

  Actual Average Record
Temperature  
Mean Temperature 58 °F -  
Max Temperature 72 °F 63 °F 77 °F (2001)
Min Temperature 46 °F 40 °F 28 °F (2002)
Degree Days  
Heating Degree Days 6    
Growing Degree Days 8 (Base 50)    
Moisture  
Dew Point 37 °F    
Average Humidity 46    
Maximum Humidity 71    
Minimum Humidity 28    
Precipitation  
Precipitation 0.01 in - - ()
Sea Level Pressure  
Sea Level Pressure 30.03 in    
Wind  
Wind Speed 10 mph (SW)    
Max Wind Speed 15 mph    
Max Gust Speed 22 mph    
Visibility 10 miles    
Events Rain    
Averages and records for this station are not official NWS values.
T = Trace of Precipitation, MM = Missing Value Source: NWS Daily Summary

Daily Weather History Graph

Daily Weather History Graph

Search for Another Location

Airport:

Trip Planner

Search our weather history database for the weather conditions in past years. The results will help you decide how hot, cold, wet, or windy it might be!

Date:

Astronomy

Apr. 26, 2013 Rise Set
Actual Time 6:10 AM CDT 8:13 PM CDT
Civil Twilight 5:39 AM CDT 8:45 PM CDT
Nautical Twilight 5:00 AM CDT 9:24 PM CDT
Astronomical Twilight 4:17 AM CDT 10:07 PM CDT
Moon 9:40 PM CDT (4/26) 6:36 AM CDT (4/26)
Length of Visible Light 15h 05m
Length of Day
14h 02m
Full, 99% of the Moon is Illuminated
Apr 26
Full
May 2
Last Quarter
May 9
New
May 17
First Quarter
May 24
Full

Hourly Weather History & Observations

Time (CDT) Temp. Windchill Dew Point Humidity Pressure Visibility Wind Dir Wind Speed Gust Speed Precip Events Conditions
12:53 AM 46.0 °F 39.6 °F 28.9 °F 51% 30.06 in 10.0 mi SE 15.0 mph - N/A   Clear
2:53 AM 48.0 °F - 34.0 °F 58% 30.00 in 10.0 mi SSE 9.2 mph - N/A   Mostly Cloudy
3:53 AM 48.0 °F - 36.0 °F 63% 30.00 in 10.0 mi SSE 10.4 mph - 0.01 in Rain Light Rain
4:53 AM 46.9 °F - 36.0 °F 66% 29.98 in 10.0 mi SSE 12.7 mph - 0.00 in   Scattered Clouds
5:53 AM 46.0 °F 41.0 °F 36.0 °F 68% 29.98 in 10.0 mi SSE 10.4 mph - N/A   Clear
6:53 AM 46.0 °F 41.9 °F 37.0 °F 71% 29.98 in 10.0 mi SSE 8.1 mph - N/A   Clear
7:53 AM 52.0 °F - 39.0 °F 61% 29.99 in 10.0 mi South 10.4 mph - N/A   Clear
8:53 AM 55.9 °F - 39.9 °F 55% 29.99 in 10.0 mi SSW 12.7 mph - N/A   Clear
9:53 AM 59.0 °F - 39.9 °F 49% 29.99 in 10.0 mi SW 12.7 mph 21.9 mph N/A   Clear
10:53 AM 61.0 °F - 39.0 °F 44% 30.01 in 10.0 mi SW 11.5 mph 21.9 mph N/A   Clear
11:53 AM 64.0 °F - 41.0 °F 43% 30.02 in 10.0 mi SW 11.5 mph - N/A   Clear
12:53 PM 66.9 °F - 42.1 °F 40% 30.03 in 10.0 mi West 10.4 mph 17.3 mph N/A   Clear
1:53 PM 68.0 °F - 42.1 °F 39% 30.02 in 10.0 mi SW 8.1 mph 17.3 mph N/A   Clear
2:53 PM 69.1 °F - 41.0 °F 36% 30.03 in 10.0 mi SW 9.2 mph - N/A   Clear
3:53 PM 70.0 °F - 41.0 °F 35% 30.03 in 10.0 mi WSW 8.1 mph - N/A   Clear
4:53 PM 71.1 °F - 37.9 °F 30% 30.04 in 10.0 mi North 9.2 mph - N/A   Clear
5:53 PM 71.1 °F - 36.0 °F 28% 30.05 in 10.0 mi WNW 9.2 mph - N/A   Clear
6:53 PM 70.0 °F - 35.1 °F 28% 30.06 in 10.0 mi WNW 5.8 mph - N/A   Clear
7:53 PM 66.9 °F - 35.1 °F 31% 30.07 in 10.0 mi WNW 4.6 mph - N/A   Clear
8:53 PM 64.0 °F - 35.1 °F 34% 30.09 in 10.0 mi NNW 3.5 mph - N/A   Clear
9:53 PM 60.1 °F - 35.1 °F 39% 30.11 in 10.0 mi NW 6.9 mph - N/A   Clear
10:53 PM 57.0 °F - 34.0 °F 42% 30.12 in 10.0 mi North 5.8 mph - N/A   Clear
11:53 PM 55.9 °F - 32.0 °F 40% 30.13 in 10.0 mi North 4.6 mph - N/A   Clear